Погода в Салдусе

Погода в Салдусе : погода сейчас, прогноз погоды и архив. Всё, что Вы хотите узнать о погоде в Салдусе!

Поиск расширенной информации на нашем сайте:

Другие новости

Новости СМИ2

Главная страница сайта

Новости сайта

03.07.2017

Напоминаем, что на нашем специализированном сайте Метеоцентр.Азия вы можете получить высокодетализированные автоматические прогнозы погоды по пунктам России, СНГ и мира в авиационном формате (включающие направление и скорость ветра, видимость, явления погоды, количество и форму облачности, нижнюю и верхнюю границу облачности).


Погода в Салдусе - сегодня

Время (UTC), дата Ветер
(°,м/с) 
Видим.   Явления Облачность Т
(°С)
Тd
(°С)
f(%) Тe
(°С)
Pmin
(гПа)
dP
(гПа)
Po
(мм)
O2
(г/м3)
Тmin Tmax R s Состояние
почвы
18 21.09.17 060 (СВ) 3-6  н/о    н/о 
+12.1 +11.4 95 +15  1018.3  -0.3  754  289           
21 21.09.17 080 (В) 3-6  н/о    н/о 
+12 +11.3 95 +15  1017.8  -0.5  753  289           
00 22.09.17 080 (В) 2-5  н/о    н/о 
+12 +11.2 95 +15  1017.8  753  289           
03 22.09.17 110 (В) 2-4  н/о    н/о 
+11.9 +11.4 97 +15  1017.4  753  289           
06 22.09.17 110 (В) 3-7  н/о    н/о 
+12.3 +11.6 95 +15  1018.2  753  288           
09 22.09.17 120 (ЮВ) 2-3  н/о    н/о 
+14.5 +12.9 90 +20  1019.6  755  286           
12 22.09.17 080 (В) 3-6  н/о    н/о 
+17.6 +14.5 82 +26  1018.7  754  282           
15 22.09.17 120 (ЮВ) 3-5  н/о    н/о 
+15.6 +13.4 87 +22  1020.6  755  285           
18 22.09.17 070 (В) 1-2  н/о    н/о 
+13.7 +12.6 93 +20  1021.8  1.1  756  288           
21 22.09.17 020 (С) 2-2  н/о    н/о 
+11.4 +11.3 99 +15  1022.4  0.5  757  290           
00 23.09.17 090 (В) 2-3  н/о    н/о 
+11.7 +11.7 100 +15  1022.9  757  290           
03 23.09.17 090 (В) 3-4  н/о    н/о 
+11.7 +11.4 98 +14  1023.1  757  290           
06 23.09.17 110 (В) 3-5  н/о    н/о 
+12 +10.9 93 +14  1023.7  758  290           
09 23.09.17 110 (В) 3-6  н/о    н/о 
+15.3 +11.7 79 +19  1023.8  0.2  758  287           
12 23.09.17 100 (В) 4-6  н/о    н/о 
+18.5 +12.3 67 +23  1023.6  758  284           
15 23.09.17 110 (В) 3-5  н/о    н/о 
+17.4 +12.9 75 +23  1024.3  758  285           
18 23.09.17 110 (В) 4-7  н/о    н/о 
+15 +11.7 81 +18  1025.8  1.4  759  288           
21 23.09.17 130 (ЮВ) 3-5  н/о    н/о 
+13.5 +11 85 +16  1027  1.1  760  290           
00 24.09.17 130 (ЮВ) 3-5  н/о    н/о 
+12.1 +10.8 92 +14  1027.8  0.7  761  291           
03 24.09.17 100 (В) 1-3  н/о    н/о 
+10.4 +9.9 97 +13  1028.6  0.7  761  294           
06 24.09.17 100 (В) 2-3  н/о    н/о 
+12 +10.7 92 +14  1029.3  0.8  762  292           
09 24.09.17 100 (В) 4-8  н/о    н/о 
+16.7 +10.7 68 +19  1029.9  0.9  762  288           
12 24.09.17 120 (ЮВ) 4-6  н/о    н/о 
+18.8 +10.5 58 +20  1030.1  0.3  763  286           
15 24.09.17 100 (В) 2-6  н/о    н/о 
+17.6 +10.9 65 +20  1030.1  762  287           
18 24.09.17 070 (В) 2-3  н/о    н/о 
+13.3 +10.7 84 +16  1031.5  1.1  763  291           
Время (UTC), дата Ветер
(°,м/с) 
Видим.   Явления Облачность Т
(°С)
Тd
(°С)
f(%) Тe
(°С)
Pmin
(гПа)
dP
(гПа)
Po
(мм)
O2
(г/м3)
Тmin Tmax R s Состояние
почвы

Для получения пояснительной информации подведите курсор к названию столбца.

ПОГОДА в Салдусе - архив

Всё, что Вы хотите узнать о погоде в Салдусе - удобно и подробно!

Выберите нужную дату (начиная с 1 января 2015* года) и нажмите кнопку "Найти".
Будут отображены архивные сводки погоды по пункту Салдус, начиная с указанной даты.


Отображать данные в формате CSV (для использования в таблицах Excel)


Внимание! Наш архив погоды предназначен исключительно для личного некоммерческого использования в познавательных целях. Если Вам необходимы официальные справки о состоянии погоды (для производственных, юридических, коммерческих и т.п. целей), обращайтесь в органы Росгидромета.

*Примечание: данная дата относится к архиву по метеостанциям СССР (Россия, СНГ, Балтия).
Архив по метеостанциям Зарубежной Европы и Азии (кроме Китая) хранится 10 дней, по другим регионам земного шара (Китай, Африка, Америка, Австралия, Океания) - 1 день.

Салдус - район местоположения метеостанции


Название, широта, долгота, высота метеостанции:
Салдус 56.7°ш. 22.5°д. 112 м над ур. моря [Латвия]

Дополнительная информация

В oтличие oт бoльшинства пoгoдных сайтoв мы публикуем пoдрoбную метеoинфoрмацию в детальнoм прoфессиoнальнoм фoрмате.

Характеристики температуры и влажнoсти вoздуха измеряются на высoте 2 м в тени вдали oт зданий и деревьев.
Скoрoсть ветра измеряется на высoте 10 м (на урoвне рoста челoвека скoрoсть ветра ниже в 1.5-2 раза). Если метеoстанция нахoдится в гoрoде или в лесу, тo скoрoсть ветра занижена на 2-4 м/с пo сравнению с oткрытым местoм. Скoрoсть ветра над акватoриями крупных рек и oзёр, а также на вершинах хoлмoв на 2-5 м/с выше, чем в oбычных услoвиях.
Атмoсфернoе давление в разных тoчках местнoсти мoжет значительнo oтличаться oт давления на метеoстанции, в зависимoсти oт услoвий рельефа (при пoдъёме на 10 м давление пoнижается примернo на 1 мм рт.ст.).